Regional Weather Roundup
Issued by NWS

Home | Current Version | Previous Version | Graphics & Text | Print | Product List | Glossary On
Versions: 1 2 3 4 5 6 7 8 9 10 11 12 13 14 15 16 17 18 19 20 21 22 23 24 25 26 27 28
000
ASUS45 KBOI 251510
RWRID

IDAHO REGIONAL WEATHER ROUNDUP
NATIONAL WEATHER SERVICE BOISE ID
900 AM MDT SAT MAR 25 2017

NOTE: "FAIR" INDICATES FEW OR NO CLOUDS BELOW 12000 FEET
WITH NO SIGNIFICANT WEATHER AND/OR OBSTRUCTIONS TO VISIBILITY

IDZ012-014-251600-
SOUTHWEST IDAHO


CITY           SKY/WX    TMP DP  RH WIND       PRES   REMARKS
BOISE          PTSUNNY   38  35  89 S5        30.10R WCI  34
CALDWELL       PTSUNNY   36  36 100 CALM      30.11S FOG
MOUNTAIN HOME  CLOUDY    38  38 100 NW7       30.09R WCI  33
$$

IDZ016-017-251600-
SOUTHCENTRAL IDAHO


CITY           SKY/WX    TMP DP  RH WIND       PRES   REMARKS
BURLEY         CLOUDY    41  35  79 SW9       30.06R
JEROME         CLOUDY    39  36  89 SW7       30.07R WCI  34
TWIN FALLS     CLOUDY    39  34  82 SW9       30.08R WCI  33
$$

IDZ019>023-251600-
SOUTHEAST IDAHO


CITY           SKY/WX    TMP DP  RH WIND       PRES   REMARKS
IDAHO FALLS    CLOUDY    40  37  89 SW16      30.04R WCI  31
POCATELLO      CLOUDY    41  37  86 SW12      30.05S
REXBURG        CLOUDY    39  35  86 SW13      30.03R WCI  31
$$

IDZ006-010-011-018-031-032-251600-
CENTRAL IDAHO MOUNTAINS


CITY           SKY/WX    TMP DP  RH WIND       PRES   REMARKS
MCCALL         FOG       30  29  96 CALM      30.04S VSB<1/4
HAILEY         CLOUDY    34  28  80 W8        30.04S WCI  27
STANLEY          N/A     29  28  96 CALM      30.06S
SALMON         CLOUDY    37  32  81 CALM      30.07R
CHALLIS        CLOUDY    37  28  70 CALM      30.04R
$$

IDZ002-004-006-007-026-251600-
NORTHERN IDAHO


CITY           SKY/WX    TMP DP  RH WIND       PRES   REMARKS
LEWISTON       PTSUNNY   41  39  93 SE3       30.09S
LOWELL           N/A     41  39  93 CALM      30.14R
COEUR D`ALENE  PTSUNNY   41  37  86 CALM      30.05R
MULLAN PASS    FOG       28  28 100 CALM      29.97F VSB 1/4
$$




USA.gov is the U.S. government's official web portal to all federal, state and local government web resources and services.